This is the latest recevied weather packets stored in our database for station/object DL6JOE-10. If no packets are shown the sender has not sent any weather packets the latest 10 day(s).
| Time | Temp. | Humidity | Pressure | Rain* | Wind** | Luminosity | Snow |
|---|---|---|---|---|---|---|---|
| 1777589461 | 11.67° C | 29% | 972.1 hPa | - | - | - | - |
| 1777588561 | 12.22° C | 28% | 972.1 hPa | - | - | - | - |
| 1777587661 | 12.22° C | 28% | 972.2 hPa | - | - | - | - |
| 1777586761 | 12.78° C | 27% | 972.2 hPa | - | - | - | - |
| 1777585860 | 13.33° C | 27% | 972.2 hPa | - | - | - | - |
| 1777584960 | 13.33° C | 27% | 972.1 hPa | - | - | - | - |
| 1777584060 | 13.89° C | 27% | 972 hPa | - | - | - | - |
| 1777583160 | 13.89° C | 26% | 972.1 hPa | - | - | - | - |
| 1777582260 | 14.44° C | 26% | 972 hPa | - | - | - | - |
| 1777581360 | 14.44° C | 26% | 971.9 hPa | - | - | - | - |
| 1777580460 | 15° C | 25% | 971.8 hPa | - | - | - | - |
| 1777579560 | 15° C | 25% | 971.8 hPa | - | - | - | - |
| 1777578660 | 15.56° C | 25% | 971.7 hPa | - | - | - | - |
| 1777577760 | 16.11° C | 24% | 971.4 hPa | - | - | - | - |
| 1777576860 | 16.67° C | 24% | 971.3 hPa | - | - | - | - |
| 1777575959 | 17.22° C | 23% | 971.2 hPa | - | - | - | - |
| 1777575059 | 17.22° C | 22% | 971 hPa | - | - | - | - |
| 1777574159 | 17.78° C | 22% | 970.9 hPa | - | - | - | - |
| 1777573259 | 18.33° C | 21% | 970.7 hPa | - | - | - | - |
| 1777572359 | 18.33° C | 20% | 970.6 hPa | - | - | - | - |
| 1777571459 | 18.89° C | 20% | 970.5 hPa | - | - | - | - |
| 1777570559 | 18.89° C | 19% | 970.5 hPa | - | - | - | - |
| 1777569659 | 19.44° C | 19% | 970.5 hPa | - | - | - | - |
| 1777568759 | 19.44° C | 19% | 970.4 hPa | - | - | - | - |
| 1777567859 | 19.44° C | 19% | 970.4 hPa | - | - | - | - |
* Rain since midnight (hover to see other rain measurements)
** Current wind speed in m/s (hover to see current wind gust speed)